This demonstration page uses our WeatherBlox Daily Observations layout. Learn more.

Left ArrowRight Arrow

Hourly Observations for August 13, 2018

Temp ( °F °C ) Dew Point ( °F °C ) Humidity (%) Winds ( mph kmh ) Pressure ( in mb ) Visibility ( mi km ) Precip ( " mm )
12:15 am 00:15 Clear 64 17.5 64 17.5 100 100 Calm 30.09 1019 10 16 0.00 0.00
12:35 am 00:35 Clear 62 16.8 62 16.8 100 100 Calm 30.09 1019 10 16 0.00 0.00
12:55 am 00:55 Clear 62 16.6 62 16.6 100 100 Calm 30.12 1020 10 16 0.00 0.00
1:15 am 01:15 Clear 63 17 63 17 100 100 Calm 30.09 1019 10 16 0.00 0.00
1:35 am 01:35 Clear 62 16.7 62 16.7 100 100 Calm 30.09 1019 10 16 0.00 0.00
1:55 am 01:55 Clear 62 16.5 62 16.5 100 100 Calm 30.09 1019 7 11 0.00 0.00
2:15 am 02:15 Clear 62 16.4 62 16.4 100 100 Calm 30.09 1019 10 16 0.00 0.00
2:35 am 02:35 Clear 61 16.1 61 16.1 100 100 Calm 30.09 1019 7 11 0.00 0.00
2:55 am 02:55 Clear with Mist and Fog 61 16.2 61 16.2 100 100 Calm 30.09 1019 3 5 0.00 0.00
3:15 am 03:15 Clear with Mist and Fog 61 15.9 61 15.9 100 100 Calm 30.09 1019 4 6 0.00 0.00
3:35 am 03:35 Clear with Mist and Fog 60 15.6 60 15.6 100 100 Calm 30.09 1019 3 5 0.00 0.00
3:55 am 03:55 Clear with Mist and Fog 60 15.6 60 15.6 100 100 Calm 30.09 1019 4 6 0.00 0.00
4:15 am 04:15 Clear with Mist and Fog 60 15.8 60 15.8 100 100 Calm 30.09 1019 5 8 0.00 0.00
4:35 am 04:35 Clear 59 15.1 59 15.1 100 100 Calm 30.06 1018 7 11 0.00 0.00
4:55 am 04:55 Clear with Mist and Fog 60 15.4 60 15.4 100 100 Calm 30.06 1018 5 8 0.00 0.00
5:15 am 05:15 Clear with Mist and Fog 60 15.6 60 15.6 100 100 Calm 30.09 1019 5 8 0.00 0.00
5:35 am 05:35 Clear with Mist and Fog 60 15.3 60 15.3 100 100 Calm 30.09 1019 3 4 0.00 0.00
5:55 am 05:55 Clear 59 15.1 59 15.1 100 100 Calm 30.06 1018 7 11 0.00 0.00
6:15 am 06:15 Mostly Cloudy with Mist and Fog 58 14.6 58 14.6 100 100 Calm 30.06 1018 1 1 0.00 0.00
6:35 am 06:35 Clear with Mist and Fog 59 14.9 59 14.9 100 100 Calm 30.06 1018 4 6 0.00 0.00
6:55 am 06:55 Sunny with Mist and Fog 58 14.6 58 14.6 100 100 Calm 30.09 1019 4 6 0.00 0.00
7:15 am 07:15 Sunny with Mist and Fog 58 14.7 58 14.7 100 100 Calm 30.09 1019 3 5 0.00 0.00
7:35 am 07:35 Mostly Cloudy with Mist and Fog 59 15.1 59 15.1 100 100 Calm 30.09 1019 1 2 0.00 0.00
7:55 am 07:55 Sunny with Mist and Fog 60 15.8 60 15.8 100 100 Calm 30.09 1019 4 6 0.00 0.00
8:15 am 08:15 Sunny with Mist and Fog 63 17.1 63 17.1 100 100 Calm 30.09 1019 4 6 0.00 0.00
8:35 am 08:35 Sunny 65 18.1 65 18.1 100 100 Calm 30.09 1019 7 11 0.00 0.00
8:55 am 08:55 Sunny with Mist and Fog 66 19 66 19 100 100 Calm 30.09 1019 5 8 0.00 0.00
9:15 am 09:15 Sunny 68 20 68 19.8 99 99 Calm 30.12 1020 7 11 0.00 0.00
9:35 am 09:35 Sunny 70 21.3 69 20.3 94 94 E 3 6 30.12 1020 10 16 0.00 0.00
9:55 am 09:55 Sunny 71 21.9 69 20.3 91 91 E 3 6 30.12 1020 10 16 0.00 0.00
10:15 am 10:15 Sunny 73 22.6 69 20.4 87 87 Calm 30.09 1019 10 16 0.00 0.00
10:35 am 10:35 Sunny 74 23.6 69 20.4 82 82 Calm 30.09 1019 10 16 0.00 0.00
10:55 am 10:55 Sunny 75 24 68 20.1 79 79 Calm 30.09 1019 10 16 0.00 0.00
11:15 am 11:15 Sunny 76 24.3 68 19.9 77 77 Calm 30.09 1019 10 16 0.00 0.00
11:35 am 11:35 Sunny 76 24.7 68 20 75 75 N 3 6 30.09 1019 10 16 0.00 0.00
11:55 am 11:55 Sunny 77 25.2 68 20.2 74 74 Calm 30.09 1019 10 16 0.00 0.00
12:15 pm 12:15 Partly Cloudy 78 25.3 67 19.6 71 71 ENE 3 6 30.06 1018 10 16 0.00 0.00
12:35 pm 12:35 Partly Cloudy 78 25.7 67 19.7 70 70 NE 5 7 30.06 1018 10 16 0.00 0.00
12:55 pm 12:55 Partly Cloudy 78 25.8 66 19.1 67 67 Calm 30.06 1018 10 16 0.00 0.00
1:15 pm 13:15 Partly Cloudy 79 26.1 67 19.5 67 67 NE 5 7 30.06 1018 10 16 0.00 0.00
1:35 pm 13:35 Partly Cloudy 80 26.4 65 18.4 62 62 NE 5 7 30.06 1018 10 16 0.00 0.00
1:55 pm 13:55 Mostly Cloudy 81 27 66 18.9 61 61 Calm 30.06 1018 10 16 0.00 0.00
2:15 pm 14:15 Cloudy 78 25.5 67 19.5 70 70 N 3 6 30.03 1017 10 16 0.00 0.00
2:35 pm 14:35 Mostly Cloudy 81 27.1 65 18.3 59 59 N 6 9 30.03 1017 10 16 0.00 0.00
2:55 pm 14:55 Partly Cloudy 81 27.2 64 17.8 57 57 E 5 7 30.03 1017 10 16 0.00 0.00
3:15 pm 15:15 Mostly Cloudy 80 26.9 65 18.4 60 60 NE 3 6 30.03 1017 10 16 0.00 0.00
3:35 pm 15:35 Partly Cloudy 81 27.3 63 17.4 55 55 Calm 30.03 1017 10 16 0.00 0.00
3:55 pm 15:55 Partly Cloudy 78 25.7 67 19.7 70 70 Calm 30.03 1017 10 16 0.00 0.00
4:15 pm 16:15 Partly Cloudy 81 27.1 64 17.9 57 57 Calm 30.03 1017 10 16 0.00 0.00
4:35 pm 16:35 Mostly Cloudy 79 26 66 18.8 65 65 NE 7 11 30.03 1017 10 16 0.00 0.00
4:55 pm 16:55 Partly Cloudy 77 25.2 66 18.7 67 67 Calm 30.03 1017 10 16 0.00 0.00
5:15 pm 17:15 Sunny 81 27.1 66 18.7 60 60 Calm 30.03 1017 10 16 0.00 0.00
5:35 pm 17:35 Mostly Cloudy 78 25.5 68 20.2 73 73 N 3 6 30.03 1017 10 16 0.00 0.00
5:55 pm 17:55 Mostly Cloudy 79 26 66 19.1 66 66 Calm 30.00 1016 10 16 0.00 0.00
6:15 pm 18:15 Partly Cloudy 80 26.6 67 19.3 64 64 NE 3 6 30.00 1016 10 16 0.00 0.00
6:35 pm 18:35 Sunny 78 25.3 69 20.6 75 75 Calm 30.00 1016 10 16 0.00 0.00
6:55 pm 18:55 Sunny 80 26.5 67 19.2 64 64 Calm 30.00 1016 10 16 0.00 0.00
7:15 pm 19:15 Sunny 78 25.6 69 20.3 73 73 Calm 30.00 1016 10 16 0.00 0.00
7:35 pm 19:35 Sunny 76 24.6 68 20 76 76 NNE 3 6 30.00 1016 10 16 0.00 0.00
7:55 pm 19:55 Partly Cloudy 75 24 70 21 83 83 Calm 30.00 1016 10 16 0.00 0.00
8:15 pm 20:15 Partly Cloudy 74 23.6 69 20.6 83 83 Calm 30.00 1016 10 16 0.00 0.00
8:35 pm 20:35 Sunny 73 22.5 69 20.4 88 88 Calm 30.00 1016 10 16 0.00 0.00
8:55 pm 20:55 Clear 71 21.5 68 20.1 92 92 Calm 30.00 1016 10 16 0.00 0.00
9:15 pm 21:15 Clear 68 20 66 19.1 95 95 Calm 30.06 1018 10 16 0.00 0.00
9:35 pm 21:35 Partly Cloudy 69 20.3 67 19.2 93 93 Calm 30.06 1018 10 16 0.00 0.00
9:55 pm 21:55 Cloudy 69 20.3 67 19.6 96 96 Calm 30.06 1018 10 16 0.00 0.00
10:15 pm 22:15 Cloudy 68 20 67 19.7 98 98 Calm 30.06 1018 10 16 0.00 0.00
10:35 pm 22:35 Cloudy 68 20 68 19.8 99 99 Calm 30.06 1018 10 16 0.00 0.00
10:55 pm 22:55 Cloudy 68 20 67 19.6 98 98 Calm 30.06 1018 10 16 0.00 0.00
11:15 pm 23:15 Mostly Cloudy 67 19.5 67 19.4 99 99 Calm 30.06 1018 10 16 0.00 0.00
11:35 pm 23:35 Mostly Cloudy 67 19.2 67 19.2 100 100 Calm 30.06 1018 10 16 0.00 0.00
11:55 pm 23:55 Partly Cloudy 66 18.9 66 18.9 100 100 Calm 30.06 1018 10 16 0.00 0.00

Powered by AerisWeather